GEFSCGP_prec_meanprecacc_312.txt.gz
Total_Precipitation_Accumulation
0.89 1.48 1.81 1.66 1.63 1.58 1.39 1.35 1.23 1.06 1.02 1.08 0.99 0.98 1.01 1.00 0.99 0.88 0.75 0.63 0.61 0.59 0.56 0.54 0.50 0.53 0.57 0.61 0.66 0.75 0.81 0.97 1.08 1.14 1.29 1.51 1.68 1.84 1.94 2.00 1.87 1.72 1.69 1.85
0.98 1.31 1.02 0.91 1.07 1.13 1.23 1.26 1.11 0.96 0.81 0.85 0.88 0.91 0.91 0.84 0.84 0.74 0.63 0.54 0.46 0.40 0.40 0.37 0.34 0.36 0.39 0.39 0.44 0.54 0.66 0.73 0.87 1.05 1.30 1.52 1.82 1.90 1.96 2.05 2.08 1.98 1.92 2.07
1.07 0.95 0.67 0.76 0.96 1.00 1.04 1.10 1.00 0.93 0.82 0.75 0.74 0.91 0.85 0.79 0.74 0.65 0.52 0.44 0.35 0.28 0.24 0.20 0.22 0.28 0.33 0.32 0.34 0.43 0.55 0.71 0.95 1.20 1.51 1.79 2.08 2.20 2.25 2.19 2.22 2.23 2.24 2.29
0.98 0.72 0.66 0.79 0.86 0.89 1.01 0.74 0.69 0.71 0.89 0.93 0.77 1.07 0.79 0.65 0.64 0.58 0.49 0.45 0.36 0.27 0.22 0.20 0.21 0.23 0.26 0.30 0.37 0.49 0.69 0.91 1.19 1.54 1.90 2.17 2.43 2.56 2.40 2.36 2.37 2.33 2.25 2.27
0.83 0.67 0.64 0.76 0.63 0.59 0.70 0.58 0.69 0.74 0.79 0.75 0.58 0.76 0.69 0.54 0.60 0.53 0.44 0.43 0.42 0.34 0.27 0.25 0.26 0.29 0.36 0.44 0.53 0.71 0.99 1.30 1.58 1.83 2.03 2.27 2.40 2.41 2.37 2.34 2.34 2.25 2.20 2.17
0.60 0.52 0.55 0.54 0.47 0.48 0.51 0.62 0.76 0.79 0.85 0.91 0.51 0.60 0.70 0.54 0.50 0.49 0.43 0.39 0.35 0.33 0.34 0.35 0.37 0.46 0.55 0.63 0.79 0.99 1.17 1.48 1.67 1.82 1.93 2.08 2.23 2.28 2.27 2.28 2.31 2.30 2.26 2.15
0.54 0.47 0.40 0.35 0.44 0.46 0.52 0.90 1.25 1.27 1.20 0.91 0.44 0.63 0.73 0.54 0.41 0.37 0.39 0.37 0.33 0.38 0.45 0.45 0.57 0.71 0.79 0.85 0.97 1.15 1.22 1.42 1.53 1.59 1.70 1.84 1.90 1.94 1.96 1.96 1.97 1.89 1.85 1.83
0.56 0.56 0.39 0.33 0.42 0.48 0.47 0.74 1.26 1.37 1.17 0.85 0.59 0.86 0.78 0.52 0.41 0.39 0.39 0.36 0.39 0.52 0.63 0.72 0.87 0.96 1.04 1.08 1.06 1.12 1.26 1.29 1.28 1.35 1.36 1.47 1.56 1.61 1.66 1.63 1.62 1.66 1.70 1.72
0.47 0.48 0.32 0.26 0.27 0.38 0.49 0.53 0.60 0.87 0.83 0.87 0.82 0.98 0.90 0.53 0.45 0.44 0.44 0.42 0.49 0.66 0.87 1.11 1.30 1.39 1.48 1.43 1.27 1.13 1.14 1.12 1.11 1.21 1.28 1.32 1.38 1.42 1.44 1.44 1.36 1.47 1.50 1.50
0.38 0.47 0.37 0.27 0.30 0.32 0.40 0.53 0.68 1.02 1.20 1.18 1.04 1.14 1.13 0.76 0.60 0.53 0.56 0.64 0.77 0.98 1.30 1.60 1.86 2.02 2.01 1.80 1.55 1.31 1.13 1.05 1.02 1.08 1.17 1.25 1.28 1.29 1.25 1.27 1.19 1.23 1.32 1.31
0.31 0.47 0.43 0.35 0.37 0.40 0.44 0.61 0.77 1.00 1.04 1.31 1.45 1.42 1.16 1.01 0.86 0.80 0.89 1.09 1.27 1.52 1.74 1.94 2.12 2.24 2.05 1.85 1.57 1.30 1.13 1.11 1.13 1.16 1.19 1.21 1.17 1.15 1.13 1.08 1.03 1.07 1.15 1.14
0.25 0.42 0.47 0.31 0.28 0.34 0.56 0.81 1.04 1.43 1.32 1.22 1.48 1.52 1.10 0.98 0.98 1.01 1.12 1.22 1.36 1.49 1.51 1.63 1.73 1.74 1.79 1.73 1.53 1.33 1.20 1.19 1.24 1.26 1.29 1.24 1.17 1.11 1.09 1.04 0.95 0.94 0.91 0.88
0.37 0.57 0.67 0.59 0.60 0.61 0.71 0.76 0.85 1.03 1.16 1.21 1.50 1.56 1.03 0.91 0.89 1.02 1.19 1.25 1.35 1.38 1.30 1.29 1.33 1.44 1.53 1.55 1.45 1.41 1.36 1.37 1.38 1.34 1.22 1.15 1.09 1.01 0.97 0.86 0.80 0.85 0.84 0.90
0.36 0.59 0.72 0.82 0.77 0.69 0.75 0.73 0.67 0.79 1.11 1.13 1.28 1.28 1.06 1.01 0.95 0.99 1.11 1.20 1.17 1.09 1.02 1.01 1.10 1.21 1.30 1.32 1.33 1.30 1.27 1.31 1.40 1.46 1.36 1.25 1.13 1.04 1.00 0.90 0.80 0.78 0.79 0.87
0.28 0.35 0.34 0.33 0.31 0.40 0.62 0.73 0.71 0.71 0.76 1.00 1.01 0.92 0.88 0.88 0.88 0.85 0.87 0.85 0.76 0.70 0.71 0.75 0.82 0.84 0.82 0.80 0.87 0.93 1.02 1.15 1.30 1.45 1.44 1.32 1.15 1.02 0.97 0.92 0.84 0.81 0.80 0.82
0.22 0.25 0.23 0.24 0.22 0.30 0.45 0.55 0.56 0.54 0.55 0.63 0.70 0.70 0.61 0.58 0.61 0.62 0.65 0.61 0.56 0.50 0.46 0.45 0.47 0.48 0.47 0.45 0.45 0.48 0.59 0.76 1.01 1.28 1.27 1.08 0.93 0.79 0.74 0.77 0.79 0.80 0.77 0.81
0.18 0.24 0.31 0.35 0.28 0.29 0.50 0.51 0.47 0.48 0.41 0.42 0.48 0.48 0.43 0.47 0.52 0.53 0.59 0.61 0.48 0.38 0.35 0.34 0.33 0.33 0.33 0.33 0.33 0.36 0.45 0.58 0.76 0.89 0.89 0.80 0.72 0.69 0.74 0.79 0.74 0.74 0.76 0.76
0.19 0.26 0.34 0.36 0.39 0.62 0.78 0.65 0.55 0.51 0.33 0.27 0.28 0.30 0.34 0.44 0.47 0.47 0.46 0.47 0.46 0.35 0.27 0.26 0.26 0.25 0.30 0.31 0.36 0.41 0.48 0.54 0.58 0.61 0.63 0.60 0.59 0.61 0.67 0.71 0.69 0.75 0.79 0.75
0.21 0.33 0.42 0.46 0.53 0.71 0.73 0.61 0.61 0.61 0.47 0.26 0.23 0.24 0.23 0.24 0.26 0.27 0.28 0.27 0.26 0.23 0.19 0.18 0.17 0.18 0.21 0.20 0.23 0.25 0.29 0.31 0.33 0.33 0.34 0.37 0.40 0.42 0.45 0.47 0.54 0.65 0.71 0.73
0.21 0.29 0.43 0.49 0.59 0.71 0.56 0.36 0.36 0.52 0.65 0.25 0.18 0.18 0.16 0.15 0.22 0.23 0.23 0.23 0.19 0.17 0.18 0.17 0.15 0.16 0.18 0.18 0.19 0.18 0.20 0.21 0.21 0.22 0.23 0.26 0.29 0.30 0.32 0.37 0.42 0.48 0.49 0.56
0.23 0.29 0.37 0.44 0.64 0.82 0.60 0.38 0.34 0.59 0.64 0.23 0.15 0.15 0.15 0.16 0.17 0.16 0.19 0.20 0.17 0.16 0.17 0.19 0.18 0.17 0.18 0.21 0.21 0.20 0.21 0.22 0.25 0.27 0.28 0.28 0.27 0.29 0.31 0.35 0.39 0.42 0.45 0.53
0.25 0.35 0.40 0.55 0.85 1.02 0.76 0.53 0.51 0.45 0.23 0.15 0.11 0.12 0.14 0.15 0.14 0.15 0.17 0.18 0.16 0.15 0.16 0.17 0.18 0.20 0.21 0.21 0.20 0.21 0.21 0.23 0.26 0.28 0.29 0.30 0.29 0.31 0.32 0.36 0.40 0.43 0.46 0.49
0.23 0.27 0.34 0.49 0.74 0.74 0.63 0.50 0.39 0.30 0.20 0.12 0.10 0.12 0.16 0.17 0.17 0.19 0.20 0.17 0.17 0.16 0.15 0.15 0.16 0.16 0.18 0.18 0.18 0.18 0.21 0.24 0.26 0.28 0.29 0.31 0.31 0.31 0.29 0.33 0.38 0.41 0.44 0.47
0.21 0.19 0.23 0.27 0.34 0.34 0.32 0.30 0.22 0.19 0.16 0.12 0.12 0.16 0.20 0.22 0.21 0.19 0.19 0.19 0.18 0.17 0.15 0.14 0.15 0.17 0.18 0.19 0.19 0.22 0.22 0.22 0.23 0.28 0.31 0.33 0.32 0.32 0.32 0.34 0.38 0.41 0.44 0.47
0.20 0.21 0.23 0.25 0.23 0.20 0.20 0.20 0.18 0.14 0.11 0.10 0.13 0.18 0.21 0.22 0.22 0.19 0.19 0.21 0.20 0.17 0.17 0.19 0.20 0.19 0.20 0.21 0.23 0.27 0.28 0.26 0.24 0.26 0.29 0.29 0.31 0.35 0.35 0.35 0.37 0.38 0.41 0.49
0.15 0.19 0.24 0.25 0.19 0.20 0.23 0.19 0.15 0.13 0.11 0.10 0.10 0.13 0.17 0.19 0.21 0.20 0.18 0.19 0.22 0.22 0.21 0.23 0.23 0.23 0.24 0.24 0.26 0.28 0.30 0.32 0.32 0.31 0.29 0.29 0.30 0.33 0.34 0.34 0.33 0.36 0.37 0.43

GEFSCGP_prec_meanprecacc_318.txt.gz
Total_Precipitation_Accumulation
0.90 1.50 1.82 1.67 1.64 1.59 1.40 1.36 1.24 1.07 1.03 1.10 1.01 1.00 1.02 1.01 1.00 0.89 0.76 0.64 0.61 0.60 0.56 0.54 0.51 0.53 0.58 0.62 0.67 0.77 0.83 0.99 1.11 1.18 1.31 1.53 1.70 1.86 1.95 2.01 1.87 1.74 1.71 1.86
0.99 1.33 1.03 0.92 1.08 1.13 1.24 1.27 1.12 0.97 0.82 0.86 0.89 0.92 0.92 0.85 0.85 0.75 0.63 0.55 0.47 0.42 0.40 0.38 0.34 0.36 0.40 0.40 0.45 0.55 0.67 0.74 0.88 1.07 1.32 1.54 1.85 1.93 2.01 2.09 2.09 1.99 1.93 2.08
1.07 0.95 0.68 0.77 0.97 1.02 1.04 1.10 1.01 0.94 0.83 0.76 0.75 0.92 0.86 0.79 0.75 0.66 0.52 0.45 0.36 0.29 0.25 0.21 0.22 0.28 0.33 0.32 0.35 0.43 0.56 0.72 0.97 1.21 1.52 1.79 2.09 2.21 2.28 2.24 2.26 2.25 2.26 2.30
0.98 0.73 0.66 0.80 0.88 0.90 1.01 0.75 0.70 0.72 0.90 0.94 0.77 1.08 0.80 0.65 0.64 0.58 0.49 0.45 0.37 0.27 0.22 0.21 0.21 0.24 0.27 0.31 0.37 0.50 0.70 0.92 1.20 1.55 1.91 2.17 2.43 2.57 2.41 2.39 2.40 2.37 2.28 2.28
0.84 0.67 0.65 0.76 0.64 0.61 0.71 0.60 0.71 0.76 0.81 0.77 0.59 0.77 0.70 0.54 0.60 0.53 0.44 0.43 0.42 0.34 0.28 0.26 0.26 0.30 0.37 0.45 0.54 0.72 0.99 1.30 1.58 1.83 2.03 2.28 2.41 2.43 2.38 2.35 2.36 2.26 2.22 2.19
0.60 0.53 0.56 0.54 0.48 0.49 0.54 0.65 0.80 0.82 0.88 0.92 0.52 0.61 0.72 0.55 0.51 0.49 0.44 0.39 0.35 0.33 0.34 0.35 0.37 0.47 0.55 0.63 0.80 0.99 1.18 1.48 1.68 1.82 1.94 2.09 2.23 2.29 2.28 2.29 2.33 2.31 2.27 2.16
0.55 0.47 0.40 0.36 0.45 0.47 0.53 0.93 1.28 1.30 1.22 0.92 0.45 0.64 0.74 0.54 0.42 0.37 0.39 0.37 0.33 0.38 0.45 0.46 0.57 0.72 0.79 0.85 0.98 1.16 1.23 1.43 1.53 1.59 1.71 1.85 1.90 1.94 1.97 1.97 1.98 1.90 1.85 1.84
0.57 0.56 0.39 0.33 0.43 0.50 0.49 0.76 1.28 1.40 1.19 0.86 0.60 0.88 0.79 0.53 0.41 0.39 0.39 0.36 0.40 0.52 0.63 0.73 0.87 0.96 1.04 1.08 1.07 1.13 1.27 1.30 1.29 1.35 1.36 1.48 1.57 1.63 1.67 1.63 1.63 1.68 1.71 1.73
0.48 0.49 0.32 0.27 0.28 0.39 0.50 0.54 0.61 0.89 0.85 0.88 0.83 1.00 0.91 0.54 0.45 0.45 0.44 0.42 0.49 0.66 0.87 1.11 1.30 1.39 1.48 1.44 1.27 1.15 1.16 1.14 1.12 1.22 1.29 1.33 1.38 1.43 1.45 1.46 1.38 1.48 1.51 1.51
0.38 0.48 0.37 0.28 0.31 0.33 0.41 0.54 0.69 1.04 1.24 1.20 1.05 1.15 1.15 0.77 0.62 0.54 0.57 0.64 0.77 0.98 1.31 1.60 1.86 2.03 2.01 1.80 1.55 1.32 1.14 1.06 1.03 1.09 1.18 1.26 1.29 1.29 1.26 1.29 1.21 1.25 1.34 1.33
0.31 0.48 0.43 0.36 0.38 0.41 0.45 0.62 0.78 1.02 1.07 1.34 1.49 1.47 1.19 1.04 0.88 0.81 0.90 1.09 1.28 1.53 1.75 1.95 2.13 2.25 2.05 1.85 1.57 1.31 1.13 1.12 1.14 1.17 1.20 1.22 1.18 1.16 1.14 1.09 1.05 1.10 1.17 1.16
0.26 0.42 0.48 0.32 0.29 0.35 0.57 0.82 1.06 1.46 1.35 1.25 1.52 1.59 1.13 1.00 0.99 1.01 1.12 1.22 1.36 1.49 1.51 1.63 1.74 1.75 1.80 1.74 1.55 1.34 1.22 1.21 1.25 1.27 1.30 1.25 1.19 1.13 1.10 1.06 0.98 0.97 0.93 0.90
0.38 0.58 0.68 0.60 0.61 0.62 0.71 0.77 0.86 1.05 1.18 1.23 1.53 1.60 1.05 0.92 0.90 1.03 1.19 1.25 1.36 1.39 1.30 1.30 1.34 1.45 1.54 1.56 1.46 1.43 1.38 1.39 1.39 1.35 1.23 1.16 1.10 1.02 0.98 0.88 0.83 0.88 0.87 0.92
0.37 0.60 0.73 0.84 0.78 0.70 0.76 0.74 0.67 0.80 1.13 1.14 1.30 1.30 1.07 1.02 0.96 1.00 1.12 1.21 1.17 1.10 1.02 1.02 1.11 1.21 1.30 1.32 1.34 1.31 1.28 1.32 1.42 1.48 1.38 1.26 1.14 1.05 1.01 0.91 0.83 0.81 0.82 0.89
0.29 0.35 0.34 0.33 0.32 0.40 0.63 0.73 0.71 0.71 0.77 1.01 1.03 0.93 0.89 0.89 0.90 0.86 0.88 0.86 0.76 0.70 0.71 0.76 0.82 0.84 0.82 0.80 0.88 0.94 1.02 1.16 1.32 1.47 1.46 1.34 1.17 1.03 0.97 0.93 0.85 0.83 0.83 0.84
0.23 0.26 0.24 0.24 0.22 0.30 0.45 0.55 0.56 0.55 0.55 0.64 0.71 0.72 0.61 0.59 0.63 0.63 0.66 0.62 0.57 0.51 0.47 0.46 0.47 0.48 0.47 0.45 0.45 0.48 0.59 0.76 1.01 1.28 1.28 1.10 0.95 0.80 0.74 0.78 0.80 0.81 0.78 0.83
0.19 0.25 0.32 0.36 0.29 0.30 0.50 0.51 0.47 0.48 0.41 0.42 0.49 0.48 0.44 0.47 0.53 0.54 0.60 0.62 0.49 0.39 0.36 0.34 0.33 0.33 0.33 0.33 0.33 0.37 0.45 0.58 0.76 0.89 0.89 0.81 0.73 0.70 0.75 0.79 0.74 0.74 0.77 0.77
0.19 0.26 0.35 0.38 0.40 0.62 0.78 0.65 0.55 0.51 0.34 0.28 0.29 0.30 0.34 0.45 0.47 0.48 0.46 0.48 0.47 0.35 0.27 0.26 0.26 0.26 0.30 0.32 0.36 0.41 0.48 0.54 0.58 0.61 0.64 0.61 0.60 0.62 0.68 0.71 0.70 0.76 0.80 0.76
0.21 0.33 0.43 0.47 0.54 0.71 0.73 0.61 0.61 0.61 0.47 0.27 0.23 0.24 0.23 0.24 0.26 0.27 0.28 0.27 0.26 0.23 0.19 0.18 0.18 0.18 0.21 0.21 0.23 0.26 0.29 0.31 0.33 0.33 0.35 0.38 0.41 0.43 0.46 0.48 0.55 0.66 0.72 0.74
0.21 0.29 0.44 0.50 0.60 0.72 0.57 0.36 0.36 0.52 0.65 0.26 0.18 0.18 0.16 0.15 0.22 0.23 0.23 0.23 0.19 0.17 0.18 0.18 0.15 0.16 0.18 0.19 0.19 0.18 0.20 0.21 0.22 0.22 0.24 0.27 0.30 0.31 0.32 0.38 0.43 0.50 0.50 0.57
0.24 0.30 0.38 0.46 0.65 0.82 0.60 0.38 0.34 0.60 0.64 0.23 0.15 0.15 0.15 0.17 0.17 0.17 0.19 0.20 0.17 0.16 0.17 0.19 0.18 0.17 0.19 0.21 0.21 0.21 0.22 0.23 0.25 0.28 0.29 0.29 0.28 0.29 0.32 0.37 0.41 0.43 0.46 0.54
0.26 0.35 0.41 0.56 0.87 1.03 0.76 0.53 0.52 0.46 0.23 0.15 0.11 0.12 0.14 0.15 0.14 0.15 0.17 0.18 0.16 0.15 0.16 0.17 0.18 0.20 0.22 0.21 0.21 0.21 0.22 0.24 0.27 0.29 0.31 0.31 0.31 0.32 0.34 0.38 0.42 0.45 0.48 0.51
0.23 0.28 0.35 0.50 0.74 0.75 0.63 0.50 0.39 0.30 0.20 0.12 0.10 0.12 0.16 0.17 0.17 0.19 0.20 0.18 0.17 0.17 0.15 0.15 0.16 0.16 0.18 0.19 0.19 0.19 0.22 0.25 0.27 0.29 0.30 0.32 0.33 0.32 0.31 0.35 0.41 0.45 0.46 0.49
0.22 0.20 0.24 0.28 0.36 0.34 0.33 0.30 0.22 0.19 0.16 0.12 0.12 0.16 0.20 0.22 0.21 0.19 0.20 0.20 0.18 0.17 0.15 0.14 0.15 0.17 0.18 0.19 0.20 0.23 0.24 0.23 0.24 0.30 0.32 0.34 0.33 0.34 0.34 0.36 0.41 0.44 0.47 0.50
0.21 0.22 0.24 0.26 0.24 0.21 0.20 0.20 0.18 0.14 0.11 0.10 0.13 0.18 0.21 0.22 0.22 0.20 0.19 0.21 0.20 0.18 0.18 0.19 0.20 0.19 0.20 0.21 0.24 0.28 0.30 0.28 0.26 0.28 0.31 0.31 0.32 0.36 0.37 0.38 0.40 0.41 0.44 0.53
0.15 0.19 0.25 0.26 0.19 0.21 0.23 0.19 0.15 0.13 0.11 0.10 0.10 0.13 0.17 0.19 0.21 0.20 0.18 0.20 0.22 0.22 0.22 0.23 0.24 0.24 0.24 0.24 0.26 0.29 0.33 0.35 0.35 0.34 0.31 0.30 0.31 0.34 0.36 0.36 0.36 0.39 0.41 0.47

GEFSCGP_prec_meanprecacc_324.txt.gz
Total_Precipitation_Accumulation
0.91 1.50 1.83 1.67 1.65 1.61 1.41 1.36 1.25 1.07 1.04 1.11 1.03 1.02 1.04 1.03 1.02 0.91 0.78 0.65 0.62 0.61 0.57 0.54 0.51 0.53 0.58 0.63 0.68 0.78 0.85 1.00 1.11 1.19 1.32 1.54 1.71 1.87 1.96 2.01 1.88 1.74 1.72 1.87
1.01 1.34 1.04 0.93 1.09 1.14 1.24 1.27 1.13 0.97 0.83 0.86 0.90 0.93 0.93 0.87 0.87 0.77 0.65 0.57 0.49 0.43 0.42 0.39 0.35 0.37 0.40 0.41 0.46 0.56 0.70 0.75 0.88 1.07 1.33 1.55 1.85 1.94 2.02 2.09 2.09 1.99 1.94 2.09
1.10 0.97 0.68 0.77 0.98 1.02 1.05 1.11 1.01 0.95 0.83 0.76 0.76 0.93 0.87 0.80 0.75 0.67 0.54 0.46 0.38 0.30 0.27 0.22 0.23 0.30 0.35 0.34 0.36 0.44 0.58 0.74 0.98 1.22 1.53 1.80 2.10 2.22 2.29 2.25 2.26 2.25 2.26 2.31
0.99 0.73 0.67 0.81 0.88 0.91 1.03 0.75 0.70 0.73 0.91 0.95 0.78 1.09 0.80 0.65 0.64 0.59 0.50 0.46 0.38 0.29 0.24 0.23 0.23 0.24 0.28 0.32 0.38 0.50 0.70 0.93 1.21 1.56 1.91 2.17 2.43 2.58 2.42 2.40 2.40 2.37 2.29 2.29
0.84 0.67 0.65 0.77 0.65 0.62 0.72 0.60 0.72 0.77 0.82 0.78 0.61 0.78 0.70 0.54 0.61 0.53 0.44 0.44 0.43 0.36 0.29 0.29 0.29 0.31 0.38 0.45 0.54 0.72 0.99 1.30 1.59 1.84 2.03 2.28 2.42 2.43 2.39 2.36 2.36 2.27 2.22 2.19
0.61 0.53 0.56 0.55 0.48 0.49 0.55 0.66 0.81 0.83 0.90 0.95 0.53 0.62 0.73 0.55 0.51 0.49 0.44 0.39 0.35 0.34 0.34 0.37 0.39 0.48 0.57 0.64 0.80 0.99 1.18 1.49 1.68 1.82 1.94 2.09 2.23 2.29 2.29 2.29 2.33 2.32 2.28 2.16
0.55 0.47 0.40 0.36 0.45 0.48 0.54 0.95 1.31 1.33 1.26 0.94 0.45 0.65 0.76 0.55 0.42 0.38 0.39 0.38 0.34 0.38 0.45 0.46 0.58 0.73 0.81 0.86 0.98 1.16 1.24 1.43 1.53 1.59 1.71 1.86 1.90 1.94 1.97 1.97 1.98 1.91 1.86 1.84
0.58 0.57 0.39 0.33 0.43 0.50 0.49 0.77 1.31 1.42 1.22 0.88 0.62 0.89 0.81 0.54 0.42 0.40 0.40 0.38 0.41 0.52 0.63 0.74 0.88 0.97 1.05 1.09 1.07 1.13 1.28 1.30 1.29 1.35 1.37 1.48 1.57 1.63 1.67 1.64 1.64 1.68 1.71 1.74
0.50 0.50 0.32 0.27 0.28 0.39 0.51 0.55 0.62 0.90 0.86 0.90 0.85 1.02 0.93 0.56 0.46 0.46 0.45 0.43 0.50 0.67 0.88 1.12 1.32 1.42 1.50 1.44 1.28 1.15 1.16 1.14 1.12 1.22 1.29 1.33 1.39 1.43 1.45 1.46 1.38 1.49 1.52 1.52
0.39 0.49 0.38 0.28 0.31 0.34 0.42 0.55 0.70 1.06 1.27 1.23 1.09 1.19 1.18 0.79 0.63 0.56 0.58 0.65 0.78 0.99 1.32 1.62 1.88 2.05 2.02 1.81 1.55 1.32 1.14 1.06 1.03 1.09 1.18 1.26 1.29 1.29 1.26 1.29 1.22 1.26 1.35 1.34
0.33 0.50 0.44 0.37 0.40 0.42 0.46 0.63 0.80 1.04 1.09 1.38 1.55 1.53 1.25 1.07 0.90 0.83 0.92 1.10 1.29 1.55 1.78 1.97 2.14 2.26 2.06 1.86 1.58 1.31 1.14 1.12 1.14 1.17 1.20 1.22 1.19 1.17 1.14 1.10 1.06 1.10 1.19 1.18
0.27 0.44 0.50 0.33 0.29 0.35 0.57 0.83 1.08 1.49 1.38 1.29 1.58 1.67 1.19 1.03 1.01 1.03 1.14 1.23 1.37 1.50 1.53 1.65 1.75 1.76 1.80 1.75 1.55 1.35 1.22 1.21 1.26 1.27 1.30 1.25 1.19 1.14 1.10 1.06 0.98 0.97 0.93 0.91
0.39 0.60 0.70 0.63 0.63 0.64 0.73 0.78 0.87 1.06 1.20 1.25 1.58 1.65 1.08 0.94 0.92 1.04 1.20 1.26 1.36 1.39 1.31 1.31 1.35 1.45 1.55 1.57 1.47 1.43 1.38 1.39 1.39 1.35 1.23 1.16 1.10 1.02 0.99 0.89 0.84 0.88 0.87 0.93
0.37 0.61 0.74 0.86 0.81 0.71 0.77 0.74 0.68 0.80 1.14 1.16 1.33 1.33 1.11 1.06 0.98 1.01 1.13 1.21 1.18 1.10 1.03 1.02 1.11 1.21 1.31 1.33 1.34 1.31 1.28 1.32 1.42 1.48 1.38 1.26 1.14 1.05 1.01 0.91 0.83 0.81 0.83 0.91
0.30 0.37 0.36 0.34 0.32 0.41 0.63 0.73 0.72 0.72 0.78 1.03 1.06 0.97 0.93 0.92 0.91 0.87 0.88 0.86 0.77 0.71 0.72 0.76 0.82 0.84 0.82 0.80 0.88 0.94 1.02 1.16 1.32 1.47 1.47 1.35 1.17 1.04 0.98 0.94 0.86 0.83 0.83 0.85
0.24 0.28 0.25 0.25 0.22 0.30 0.46 0.56 0.57 0.55 0.56 0.64 0.72 0.74 0.64 0.60 0.63 0.63 0.66 0.62 0.57 0.51 0.47 0.46 0.48 0.48 0.47 0.45 0.45 0.48 0.59 0.76 1.01 1.28 1.28 1.11 0.96 0.81 0.76 0.79 0.82 0.82 0.79 0.83
0.20 0.26 0.33 0.37 0.29 0.30 0.51 0.52 0.48 0.48 0.41 0.43 0.49 0.50 0.45 0.48 0.54 0.55 0.60 0.62 0.49 0.39 0.37 0.35 0.33 0.33 0.33 0.34 0.34 0.37 0.45 0.58 0.76 0.89 0.89 0.81 0.74 0.71 0.76 0.80 0.76 0.77 0.78 0.78
0.19 0.27 0.36 0.39 0.40 0.63 0.79 0.66 0.56 0.52 0.34 0.28 0.29 0.31 0.35 0.46 0.48 0.49 0.48 0.48 0.47 0.36 0.28 0.27 0.26 0.26 0.31 0.32 0.36 0.41 0.48 0.54 0.58 0.61 0.64 0.61 0.61 0.63 0.70 0.73 0.71 0.78 0.82 0.77
0.21 0.34 0.44 0.48 0.55 0.72 0.74 0.62 0.62 0.61 0.47 0.27 0.23 0.24 0.24 0.24 0.26 0.28 0.29 0.28 0.27 0.23 0.20 0.18 0.18 0.18 0.21 0.21 0.23 0.26 0.29 0.31 0.33 0.33 0.35 0.38 0.41 0.44 0.47 0.49 0.56 0.68 0.73 0.75
0.22 0.30 0.45 0.51 0.61 0.73 0.58 0.36 0.36 0.52 0.65 0.26 0.18 0.18 0.16 0.15 0.22 0.23 0.23 0.23 0.20 0.17 0.19 0.18 0.15 0.16 0.18 0.19 0.19 0.18 0.20 0.21 0.22 0.22 0.24 0.27 0.30 0.32 0.34 0.40 0.45 0.52 0.53 0.58
0.24 0.31 0.38 0.47 0.66 0.83 0.60 0.38 0.34 0.60 0.65 0.23 0.15 0.15 0.15 0.17 0.17 0.17 0.19 0.20 0.18 0.16 0.17 0.19 0.18 0.17 0.19 0.21 0.21 0.21 0.22 0.23 0.26 0.28 0.30 0.30 0.29 0.30 0.34 0.39 0.42 0.45 0.49 0.56
0.27 0.37 0.43 0.57 0.88 1.04 0.77 0.54 0.52 0.46 0.24 0.15 0.11 0.12 0.14 0.15 0.14 0.15 0.17 0.18 0.16 0.15 0.16 0.17 0.18 0.20 0.22 0.21 0.21 0.22 0.22 0.24 0.28 0.30 0.31 0.32 0.32 0.33 0.36 0.40 0.45 0.48 0.51 0.53
0.25 0.29 0.37 0.53 0.77 0.77 0.64 0.51 0.39 0.31 0.20 0.12 0.10 0.12 0.16 0.17 0.17 0.19 0.20 0.18 0.17 0.17 0.15 0.15 0.16 0.16 0.18 0.19 0.19 0.19 0.23 0.25 0.28 0.30 0.31 0.34 0.34 0.34 0.32 0.38 0.44 0.48 0.50 0.53
0.23 0.20 0.25 0.30 0.38 0.36 0.34 0.32 0.23 0.19 0.16 0.12 0.12 0.16 0.20 0.22 0.21 0.19 0.20 0.20 0.18 0.17 0.15 0.14 0.15 0.17 0.18 0.20 0.20 0.23 0.24 0.23 0.25 0.30 0.33 0.35 0.35 0.36 0.36 0.38 0.43 0.47 0.52 0.55
0.22 0.22 0.24 0.27 0.26 0.22 0.21 0.21 0.19 0.14 0.11 0.10 0.13 0.18 0.21 0.22 0.22 0.20 0.19 0.21 0.20 0.18 0.18 0.19 0.20 0.19 0.20 0.22 0.24 0.28 0.30 0.28 0.26 0.29 0.31 0.32 0.34 0.38 0.39 0.40 0.42 0.45 0.49 0.59
0.15 0.20 0.26 0.27 0.20 0.22 0.23 0.20 0.16 0.14 0.11 0.10 0.10 0.13 0.17 0.19 0.21 0.20 0.18 0.20 0.22 0.22 0.22 0.23 0.24 0.24 0.24 0.24 0.26 0.29 0.33 0.36 0.35 0.34 0.32 0.31 0.33 0.36 0.38 0.39 0.39 0.42 0.45 0.54

GEFSCGP_prec_meanprecacc_330.txt.gz
Total_Precipitation_Accumulation
0.92 1.52 1.84 1.69 1.66 1.62 1.41 1.37 1.25 1.08 1.04 1.12 1.04 1.03 1.05 1.04 1.02 0.91 0.78 0.66 0.64 0.63 0.59 0.56 0.53 0.55 0.60 0.67 0.73 0.83 0.92 1.08 1.18 1.24 1.36 1.56 1.73 1.88 1.97 2.02 1.89 1.75 1.72 1.88
1.03 1.36 1.05 0.93 1.10 1.15 1.24 1.28 1.13 0.98 0.83 0.87 0.91 0.94 0.94 0.88 0.87 0.77 0.66 0.58 0.51 0.46 0.44 0.40 0.36 0.39 0.44 0.45 0.50 0.61 0.74 0.82 0.95 1.12 1.38 1.59 1.87 1.95 2.03 2.10 2.09 2.00 1.94 2.09
1.11 0.98 0.69 0.78 0.98 1.03 1.05 1.12 1.02 0.95 0.84 0.77 0.77 0.94 0.87 0.80 0.76 0.67 0.54 0.47 0.40 0.33 0.29 0.24 0.24 0.31 0.38 0.37 0.40 0.48 0.61 0.77 1.01 1.25 1.57 1.84 2.12 2.23 2.29 2.25 2.26 2.25 2.26 2.31
1.00 0.74 0.67 0.81 0.89 0.92 1.04 0.76 0.71 0.73 0.91 0.96 0.79 1.09 0.80 0.66 0.65 0.59 0.51 0.46 0.39 0.31 0.27 0.26 0.25 0.27 0.30 0.34 0.40 0.53 0.73 0.94 1.23 1.57 1.93 2.19 2.46 2.60 2.44 2.41 2.41 2.37 2.29 2.29
0.86 0.68 0.66 0.78 0.65 0.62 0.73 0.61 0.72 0.77 0.82 0.79 0.61 0.78 0.70 0.55 0.61 0.53 0.45 0.45 0.45 0.41 0.33 0.31 0.33 0.34 0.39 0.47 0.55 0.74 1.00 1.31 1.60 1.86 2.04 2.29 2.42 2.44 2.39 2.36 2.36 2.27 2.22 2.19
0.62 0.54 0.56 0.55 0.49 0.50 0.56 0.67 0.81 0.84 0.90 0.95 0.53 0.62 0.73 0.56 0.52 0.50 0.45 0.40 0.38 0.39 0.37 0.38 0.41 0.50 0.59 0.66 0.82 1.01 1.18 1.49 1.69 1.84 1.95 2.09 2.23 2.29 2.29 2.29 2.33 2.32 2.28 2.16
0.57 0.48 0.40 0.36 0.46 0.48 0.55 0.96 1.33 1.34 1.26 0.95 0.46 0.66 0.76 0.56 0.44 0.39 0.40 0.39 0.36 0.40 0.46 0.48 0.59 0.75 0.82 0.87 1.00 1.17 1.25 1.44 1.54 1.60 1.72 1.86 1.91 1.94 1.97 1.98 1.98 1.91 1.86 1.84
0.59 0.58 0.39 0.34 0.43 0.51 0.50 0.79 1.32 1.43 1.23 0.89 0.62 0.91 0.82 0.57 0.45 0.41 0.41 0.41 0.43 0.53 0.64 0.75 0.89 0.99 1.07 1.10 1.08 1.14 1.28 1.30 1.30 1.36 1.37 1.49 1.58 1.63 1.67 1.64 1.64 1.68 1.71 1.74
0.51 0.51 0.33 0.27 0.28 0.39 0.52 0.56 0.63 0.92 0.87 0.91 0.87 1.04 0.95 0.58 0.48 0.47 0.47 0.46 0.53 0.68 0.89 1.15 1.35 1.44 1.51 1.45 1.29 1.16 1.17 1.15 1.13 1.23 1.30 1.33 1.39 1.43 1.45 1.46 1.38 1.49 1.52 1.52
0.40 0.50 0.39 0.28 0.32 0.34 0.43 0.57 0.73 1.09 1.28 1.26 1.14 1.26 1.21 0.81 0.64 0.57 0.60 0.66 0.79 1.00 1.33 1.63 1.90 2.07 2.04 1.82 1.56 1.33 1.15 1.06 1.04 1.10 1.18 1.26 1.29 1.30 1.26 1.30 1.23 1.26 1.36 1.35
0.34 0.51 0.46 0.38 0.42 0.45 0.47 0.65 0.82 1.05 1.10 1.41 1.60 1.57 1.28 1.08 0.90 0.83 0.93 1.11 1.29 1.56 1.79 1.98 2.15 2.28 2.08 1.87 1.59 1.32 1.14 1.13 1.15 1.17 1.21 1.23 1.19 1.17 1.15 1.11 1.07 1.11 1.20 1.19
0.29 0.46 0.52 0.34 0.30 0.36 0.58 0.84 1.09 1.50 1.39 1.30 1.61 1.69 1.21 1.04 1.02 1.03 1.14 1.23 1.37 1.51 1.54 1.66 1.76 1.77 1.82 1.76 1.56 1.36 1.23 1.22 1.26 1.28 1.31 1.26 1.20 1.14 1.11 1.07 1.00 0.98 0.95 0.92
0.40 0.62 0.72 0.64 0.64 0.65 0.74 0.79 0.87 1.07 1.21 1.26 1.59 1.67 1.10 0.96 0.92 1.04 1.20 1.26 1.37 1.40 1.32 1.32 1.36 1.47 1.56 1.58 1.48 1.44 1.39 1.40 1.40 1.36 1.24 1.17 1.10 1.03 0.99 0.91 0.85 0.89 0.88 0.95
0.38 0.62 0.75 0.87 0.82 0.72 0.77 0.75 0.68 0.81 1.15 1.17 1.34 1.34 1.12 1.06 0.99 1.02 1.13 1.22 1.18 1.11 1.04 1.04 1.12 1.23 1.32 1.34 1.35 1.32 1.29 1.33 1.43 1.49 1.39 1.27 1.15 1.06 1.02 0.94 0.85 0.83 0.84 0.92
0.30 0.38 0.37 0.35 0.33 0.41 0.63 0.74 0.72 0.73 0.79 1.04 1.06 0.97 0.94 0.92 0.92 0.87 0.88 0.86 0.77 0.71 0.73 0.77 0.83 0.85 0.83 0.81 0.89 0.94 1.03 1.16 1.33 1.48 1.47 1.36 1.18 1.05 0.99 0.96 0.87 0.85 0.85 0.86
0.24 0.28 0.26 0.26 0.23 0.31 0.46 0.56 0.58 0.56 0.57 0.65 0.73 0.74 0.64 0.61 0.63 0.63 0.66 0.62 0.57 0.52 0.48 0.47 0.48 0.49 0.48 0.46 0.46 0.49 0.59 0.77 1.02 1.29 1.29 1.12 0.97 0.82 0.77 0.80 0.83 0.84 0.81 0.85
0.20 0.27 0.34 0.38 0.30 0.31 0.51 0.52 0.48 0.48 0.42 0.43 0.49 0.50 0.46 0.49 0.54 0.55 0.61 0.62 0.49 0.40 0.37 0.35 0.34 0.34 0.34 0.34 0.34 0.37 0.46 0.59 0.77 0.90 0.91 0.82 0.75 0.73 0.78 0.82 0.78 0.79 0.81 0.81
0.19 0.27 0.37 0.40 0.42 0.64 0.80 0.67 0.56 0.52 0.34 0.28 0.29 0.32 0.36 0.46 0.49 0.50 0.48 0.48 0.47 0.36 0.29 0.27 0.27 0.27 0.32 0.33 0.37 0.42 0.49 0.55 0.59 0.62 0.65 0.62 0.62 0.64 0.71 0.75 0.75 0.81 0.86 0.81
0.22 0.34 0.44 0.49 0.57 0.74 0.76 0.63 0.63 0.62 0.48 0.27 0.24 0.25 0.24 0.25 0.27 0.28 0.29 0.28 0.27 0.24 0.20 0.18 0.18 0.19 0.22 0.22 0.23 0.26 0.29 0.32 0.34 0.34 0.35 0.39 0.42 0.45 0.48 0.51 0.60 0.72 0.79 0.81
0.22 0.31 0.46 0.52 0.63 0.76 0.59 0.37 0.37 0.53 0.67 0.26 0.19 0.19 0.16 0.16 0.23 0.23 0.23 0.24 0.20 0.18 0.19 0.19 0.16 0.17 0.19 0.19 0.20 0.19 0.20 0.21 0.22 0.23 0.25 0.28 0.31 0.33 0.36 0.41 0.46 0.54 0.56 0.63
0.25 0.32 0.39 0.48 0.68 0.86 0.62 0.39 0.35 0.62 0.67 0.24 0.16 0.16 0.16 0.17 0.17 0.17 0.19 0.21 0.18 0.17 0.17 0.19 0.19 0.18 0.19 0.22 0.22 0.21 0.22 0.23 0.26 0.29 0.30 0.31 0.30 0.32 0.36 0.40 0.44 0.47 0.51 0.60
0.28 0.38 0.44 0.59 0.91 1.07 0.78 0.55 0.53 0.48 0.24 0.16 0.12 0.12 0.15 0.15 0.14 0.15 0.17 0.18 0.16 0.15 0.16 0.17 0.18 0.21 0.22 0.22 0.22 0.22 0.22 0.25 0.28 0.31 0.32 0.34 0.33 0.35 0.37 0.42 0.48 0.51 0.54 0.57
0.26 0.30 0.39 0.56 0.81 0.80 0.66 0.52 0.40 0.32 0.21 0.13 0.10 0.12 0.16 0.17 0.17 0.19 0.20 0.18 0.17 0.17 0.15 0.15 0.16 0.17 0.18 0.19 0.19 0.20 0.23 0.26 0.29 0.31 0.33 0.36 0.36 0.36 0.35 0.40 0.47 0.51 0.53 0.55
0.24 0.21 0.26 0.32 0.40 0.38 0.35 0.32 0.24 0.20 0.17 0.12 0.12 0.16 0.20 0.22 0.21 0.19 0.20 0.20 0.18 0.17 0.15 0.14 0.16 0.18 0.19 0.20 0.20 0.23 0.24 0.24 0.25 0.31 0.34 0.36 0.36 0.37 0.38 0.40 0.45 0.49 0.53 0.56
0.22 0.23 0.25 0.28 0.27 0.24 0.22 0.21 0.19 0.15 0.12 0.11 0.13 0.18 0.21 0.22 0.22 0.20 0.19 0.22 0.20 0.18 0.18 0.20 0.21 0.20 0.21 0.22 0.24 0.28 0.31 0.28 0.26 0.29 0.32 0.33 0.35 0.39 0.40 0.41 0.44 0.46 0.51 0.61
0.16 0.20 0.27 0.28 0.21 0.23 0.24 0.20 0.16 0.14 0.11 0.10 0.11 0.13 0.17 0.19 0.21 0.21 0.19 0.20 0.22 0.23 0.22 0.24 0.24 0.24 0.25 0.25 0.27 0.29 0.34 0.36 0.35 0.34 0.32 0.31 0.33 0.37 0.39 0.39 0.40 0.44 0.47 0.57

GEFSCGP_prec_meanprecacc_336.txt.gz
Total_Precipitation_Accumulation
0.93 1.53 1.84 1.69 1.67 1.62 1.41 1.37 1.26 1.08 1.05 1.12 1.05 1.04 1.07 1.06 1.04 0.93 0.80 0.68 0.66 0.65 0.61 0.59 0.56 0.58 0.63 0.70 0.76 0.86 0.97 1.15 1.26 1.31 1.41 1.61 1.78 1.92 2.00 2.05 1.90 1.76 1.74 1.89
1.03 1.37 1.05 0.94 1.11 1.15 1.25 1.29 1.13 0.98 0.83 0.87 0.91 0.95 0.94 0.88 0.88 0.78 0.67 0.60 0.52 0.48 0.46 0.42 0.37 0.41 0.45 0.46 0.52 0.63 0.77 0.86 1.02 1.21 1.46 1.66 1.94 2.00 2.06 2.11 2.11 2.01 1.95 2.10
1.11 0.99 0.69 0.79 1.00 1.04 1.06 1.12 1.03 0.95 0.84 0.78 0.77 0.94 0.88 0.81 0.76 0.69 0.56 0.48 0.41 0.34 0.29 0.24 0.25 0.32 0.38 0.38 0.41 0.51 0.64 0.79 1.04 1.30 1.65 1.93 2.19 2.28 2.34 2.29 2.29 2.27 2.27 2.32
1.01 0.74 0.68 0.82 0.90 0.93 1.04 0.76 0.72 0.74 0.92 0.96 0.79 1.10 0.81 0.66 0.65 0.60 0.52 0.47 0.41 0.33 0.29 0.27 0.25 0.27 0.30 0.35 0.42 0.55 0.75 0.97 1.26 1.60 1.96 2.23 2.49 2.64 2.48 2.45 2.45 2.41 2.31 2.30
0.87 0.69 0.66 0.79 0.67 0.63 0.73 0.61 0.73 0.78 0.83 0.80 0.61 0.79 0.71 0.55 0.61 0.55 0.48 0.46 0.49 0.47 0.37 0.35 0.35 0.36 0.40 0.48 0.57 0.76 1.03 1.34 1.64 1.89 2.07 2.31 2.44 2.46 2.41 2.38 2.38 2.28 2.24 2.20
0.63 0.54 0.57 0.56 0.50 0.50 0.56 0.67 0.82 0.84 0.90 0.96 0.53 0.63 0.74 0.56 0.52 0.51 0.45 0.40 0.40 0.45 0.41 0.40 0.44 0.52 0.60 0.67 0.84 1.04 1.22 1.52 1.71 1.86 1.98 2.12 2.26 2.31 2.31 2.31 2.34 2.32 2.28 2.17
0.58 0.49 0.41 0.37 0.46 0.48 0.55 0.97 1.33 1.35 1.27 0.95 0.46 0.66 0.76 0.56 0.44 0.39 0.41 0.40 0.36 0.41 0.47 0.48 0.60 0.77 0.84 0.89 1.01 1.19 1.27 1.46 1.57 1.63 1.75 1.90 1.94 1.96 1.99 2.00 2.00 1.91 1.86 1.85
0.60 0.59 0.39 0.34 0.43 0.51 0.50 0.79 1.33 1.44 1.23 0.89 0.62 0.91 0.83 0.58 0.45 0.41 0.42 0.42 0.44 0.53 0.64 0.75 0.90 0.99 1.07 1.11 1.10 1.15 1.30 1.33 1.34 1.40 1.41 1.51 1.59 1.64 1.68 1.65 1.65 1.69 1.72 1.74
0.52 0.52 0.33 0.27 0.29 0.40 0.52 0.57 0.64 0.93 0.88 0.91 0.87 1.05 0.97 0.60 0.48 0.48 0.48 0.48 0.54 0.69 0.90 1.15 1.35 1.45 1.52 1.46 1.29 1.17 1.18 1.17 1.15 1.25 1.31 1.34 1.40 1.44 1.46 1.47 1.39 1.50 1.53 1.53
0.41 0.51 0.39 0.29 0.33 0.35 0.43 0.58 0.75 1.12 1.30 1.26 1.15 1.30 1.26 0.83 0.65 0.57 0.60 0.68 0.79 1.00 1.34 1.63 1.90 2.08 2.05 1.82 1.57 1.34 1.16 1.08 1.05 1.11 1.20 1.27 1.30 1.31 1.27 1.30 1.23 1.27 1.37 1.36
0.34 0.52 0.47 0.40 0.43 0.45 0.48 0.66 0.83 1.07 1.12 1.42 1.62 1.62 1.32 1.10 0.91 0.84 0.93 1.12 1.30 1.56 1.79 1.98 2.15 2.28 2.08 1.88 1.59 1.33 1.15 1.14 1.16 1.19 1.23 1.24 1.20 1.19 1.16 1.11 1.07 1.12 1.21 1.20
0.29 0.47 0.53 0.34 0.31 0.37 0.60 0.86 1.11 1.52 1.41 1.32 1.63 1.72 1.23 1.05 1.02 1.04 1.14 1.24 1.37 1.51 1.54 1.66 1.76 1.78 1.82 1.77 1.57 1.36 1.24 1.23 1.27 1.30 1.33 1.28 1.21 1.16 1.13 1.08 1.00 0.99 0.96 0.94
0.41 0.63 0.73 0.65 0.65 0.66 0.75 0.80 0.89 1.10 1.24 1.28 1.61 1.68 1.11 0.96 0.93 1.05 1.20 1.27 1.37 1.40 1.32 1.32 1.37 1.47 1.57 1.59 1.49 1.44 1.39 1.41 1.42 1.38 1.26 1.19 1.12 1.04 1.00 0.92 0.87 0.90 0.90 0.96
0.39 0.64 0.77 0.88 0.82 0.72 0.78 0.75 0.68 0.82 1.16 1.18 1.35 1.35 1.13 1.07 1.00 1.02 1.13 1.22 1.19 1.11 1.04 1.04 1.13 1.24 1.33 1.35 1.37 1.33 1.30 1.35 1.45 1.51 1.41 1.29 1.17 1.08 1.04 0.95 0.87 0.84 0.86 0.94
0.31 0.38 0.38 0.36 0.33 0.42 0.64 0.74 0.73 0.73 0.79 1.04 1.06 0.98 0.94 0.93 0.93 0.88 0.89 0.87 0.78 0.72 0.73 0.77 0.83 0.85 0.83 0.82 0.89 0.95 1.04 1.18 1.34 1.49 1.49 1.38 1.21 1.08 1.01 0.97 0.89 0.87 0.87 0.88
0.25 0.29 0.26 0.27 0.24 0.31 0.46 0.56 0.58 0.56 0.57 0.65 0.73 0.75 0.64 0.61 0.64 0.64 0.66 0.62 0.58 0.52 0.48 0.47 0.49 0.49 0.48 0.46 0.47 0.50 0.60 0.78 1.03 1.31 1.32 1.15 1.00 0.85 0.79 0.82 0.85 0.86 0.83 0.88
0.21 0.28 0.35 0.40 0.31 0.31 0.52 0.54 0.49 0.49 0.42 0.43 0.50 0.50 0.46 0.49 0.56 0.57 0.62 0.63 0.50 0.40 0.38 0.36 0.34 0.34 0.34 0.34 0.34 0.38 0.47 0.60 0.78 0.91 0.92 0.84 0.77 0.75 0.81 0.84 0.80 0.81 0.84 0.85
0.21 0.28 0.38 0.41 0.43 0.66 0.83 0.70 0.58 0.53 0.35 0.28 0.30 0.32 0.37 0.48 0.50 0.51 0.49 0.48 0.47 0.37 0.29 0.27 0.27 0.27 0.32 0.33 0.37 0.42 0.49 0.55 0.60 0.63 0.66 0.63 0.63 0.65 0.73 0.77 0.76 0.83 0.88 0.84
0.23 0.36 0.46 0.50 0.58 0.75 0.78 0.66 0.65 0.64 0.49 0.28 0.24 0.25 0.25 0.26 0.28 0.29 0.30 0.28 0.27 0.24 0.20 0.18 0.19 0.20 0.22 0.22 0.24 0.27 0.30 0.32 0.34 0.34 0.36 0.40 0.43 0.46 0.49 0.51 0.61 0.74 0.81 0.85
0.23 0.32 0.48 0.53 0.64 0.77 0.60 0.38 0.39 0.55 0.68 0.27 0.19 0.19 0.18 0.17 0.23 0.23 0.23 0.24 0.20 0.18 0.19 0.19 0.16 0.17 0.19 0.20 0.21 0.20 0.21 0.22 0.23 0.23 0.25 0.28 0.32 0.34 0.37 0.42 0.47 0.55 0.58 0.66
0.26 0.33 0.41 0.50 0.69 0.86 0.62 0.39 0.36 0.64 0.68 0.25 0.17 0.17 0.17 0.17 0.17 0.17 0.19 0.21 0.18 0.17 0.18 0.19 0.19 0.18 0.19 0.22 0.22 0.22 0.22 0.23 0.26 0.29 0.30 0.31 0.31 0.32 0.37 0.41 0.45 0.49 0.53 0.62
0.29 0.40 0.46 0.60 0.93 1.08 0.79 0.56 0.54 0.49 0.25 0.16 0.12 0.13 0.15 0.16 0.15 0.15 0.17 0.18 0.16 0.15 0.16 0.17 0.18 0.21 0.22 0.22 0.22 0.22 0.23 0.25 0.28 0.31 0.33 0.34 0.34 0.36 0.38 0.43 0.49 0.52 0.56 0.59
0.27 0.32 0.40 0.57 0.83 0.81 0.67 0.53 0.41 0.33 0.22 0.13 0.11 0.13 0.17 0.18 0.17 0.19 0.20 0.18 0.17 0.17 0.15 0.15 0.16 0.17 0.18 0.20 0.20 0.20 0.24 0.26 0.29 0.31 0.33 0.36 0.37 0.37 0.36 0.41 0.48 0.52 0.55 0.57
0.26 0.22 0.26 0.32 0.40 0.38 0.36 0.33 0.24 0.20 0.18 0.14 0.13 0.17 0.21 0.23 0.21 0.20 0.20 0.20 0.18 0.17 0.15 0.14 0.16 0.18 0.19 0.20 0.21 0.24 0.25 0.24 0.26 0.32 0.35 0.36 0.37 0.38 0.39 0.41 0.46 0.50 0.54 0.58
0.25 0.26 0.27 0.28 0.27 0.24 0.22 0.22 0.20 0.15 0.12 0.11 0.14 0.18 0.21 0.22 0.22 0.20 0.19 0.22 0.20 0.18 0.18 0.20 0.21 0.20 0.21 0.22 0.24 0.29 0.31 0.28 0.26 0.29 0.32 0.33 0.35 0.39 0.41 0.42 0.45 0.47 0.52 0.62
0.17 0.23 0.29 0.30 0.22 0.23 0.24 0.21 0.17 0.15 0.12 0.11 0.11 0.14 0.17 0.19 0.21 0.21 0.19 0.20 0.23 0.23 0.23 0.24 0.24 0.24 0.25 0.25 0.27 0.30 0.34 0.36 0.35 0.34 0.32 0.32 0.34 0.37 0.40 0.40 0.41 0.45 0.48 0.58

GEFSCGP_prec_meanprecacc_342.txt.gz
Total_Precipitation_Accumulation
0.94 1.54 1.86 1.70 1.68 1.63 1.42 1.37 1.26 1.08 1.05 1.12 1.05 1.05 1.08 1.08 1.07 0.96 0.83 0.70 0.68 0.67 0.63 0.61 0.57 0.59 0.64 0.72 0.78 0.89 1.00 1.20 1.30 1.34 1.45 1.65 1.81 1.93 2.02 2.06 1.92 1.79 1.76 1.91
1.04 1.38 1.06 0.95 1.13 1.16 1.26 1.29 1.14 0.98 0.84 0.87 0.92 0.95 0.95 0.89 0.89 0.79 0.69 0.63 0.55 0.50 0.48 0.43 0.39 0.42 0.46 0.47 0.53 0.64 0.79 0.89 1.04 1.24 1.50 1.71 1.98 2.02 2.08 2.14 2.13 2.04 1.98 2.12
1.12 0.99 0.70 0.81 1.02 1.05 1.07 1.13 1.03 0.96 0.85 0.78 0.78 0.95 0.88 0.81 0.77 0.69 0.56 0.49 0.42 0.35 0.31 0.26 0.26 0.33 0.40 0.39 0.43 0.53 0.66 0.82 1.05 1.31 1.67 1.96 2.24 2.34 2.39 2.33 2.33 2.29 2.29 2.33
1.02 0.75 0.69 0.85 0.91 0.94 1.05 0.77 0.73 0.75 0.92 0.97 0.80 1.10 0.82 0.67 0.66 0.61 0.52 0.48 0.41 0.34 0.30 0.28 0.26 0.28 0.31 0.36 0.43 0.57 0.77 1.00 1.28 1.61 1.96 2.24 2.54 2.70 2.54 2.51 2.50 2.44 2.33 2.32
0.87 0.69 0.68 0.81 0.67 0.64 0.74 0.61 0.73 0.79 0.83 0.80 0.62 0.80 0.71 0.56 0.62 0.56 0.48 0.46 0.49 0.47 0.37 0.35 0.36 0.37 0.41 0.48 0.58 0.77 1.05 1.36 1.65 1.90 2.08 2.33 2.47 2.50 2.47 2.41 2.40 2.30 2.25 2.22
0.64 0.54 0.58 0.58 0.51 0.51 0.56 0.67 0.82 0.85 0.91 0.97 0.54 0.64 0.75 0.57 0.52 0.51 0.46 0.41 0.40 0.45 0.41 0.41 0.45 0.53 0.60 0.68 0.85 1.05 1.23 1.53 1.72 1.87 2.00 2.15 2.30 2.35 2.33 2.32 2.35 2.32 2.28 2.17
0.59 0.49 0.42 0.38 0.47 0.49 0.55 0.97 1.34 1.35 1.28 0.96 0.46 0.66 0.77 0.57 0.44 0.39 0.41 0.40 0.37 0.41 0.47 0.49 0.61 0.77 0.85 0.89 1.02 1.20 1.28 1.48 1.59 1.65 1.78 1.93 1.95 1.97 2.00 2.01 2.01 1.92 1.87 1.85
0.60 0.59 0.40 0.35 0.43 0.51 0.50 0.80 1.34 1.45 1.24 0.90 0.63 0.92 0.84 0.59 0.45 0.41 0.42 0.42 0.45 0.54 0.65 0.76 0.90 0.99 1.07 1.11 1.10 1.16 1.30 1.34 1.35 1.42 1.43 1.52 1.59 1.64 1.68 1.65 1.65 1.69 1.73 1.75
0.52 0.52 0.34 0.28 0.29 0.40 0.53 0.58 0.65 0.94 0.88 0.92 0.87 1.06 0.98 0.61 0.49 0.48 0.48 0.49 0.54 0.69 0.90 1.15 1.35 1.45 1.52 1.46 1.29 1.17 1.19 1.18 1.16 1.27 1.32 1.35 1.41 1.45 1.47 1.47 1.39 1.50 1.53 1.53
0.41 0.51 0.39 0.29 0.33 0.36 0.44 0.59 0.76 1.13 1.31 1.27 1.15 1.31 1.28 0.84 0.66 0.58 0.61 0.68 0.80 1.00 1.34 1.63 1.90 2.08 2.05 1.83 1.57 1.34 1.16 1.08 1.06 1.12 1.21 1.28 1.31 1.31 1.27 1.31 1.23 1.27 1.37 1.36
0.35 0.52 0.48 0.40 0.43 0.46 0.48 0.67 0.84 1.08 1.13 1.43 1.62 1.63 1.33 1.11 0.92 0.85 0.94 1.13 1.30 1.56 1.79 1.98 2.15 2.28 2.08 1.88 1.60 1.33 1.15 1.14 1.17 1.20 1.24 1.25 1.21 1.19 1.16 1.12 1.08 1.13 1.21 1.20
0.31 0.48 0.54 0.35 0.31 0.38 0.61 0.87 1.12 1.53 1.42 1.33 1.65 1.73 1.24 1.06 1.03 1.05 1.15 1.24 1.38 1.51 1.54 1.66 1.76 1.78 1.82 1.77 1.57 1.36 1.24 1.23 1.28 1.31 1.34 1.29 1.22 1.17 1.14 1.09 1.01 0.99 0.96 0.94
0.43 0.65 0.75 0.67 0.67 0.67 0.76 0.81 0.91 1.12 1.24 1.28 1.62 1.70 1.13 0.97 0.94 1.06 1.23 1.28 1.37 1.40 1.32 1.32 1.37 1.47 1.57 1.60 1.49 1.45 1.40 1.42 1.43 1.39 1.28 1.20 1.13 1.05 1.01 0.93 0.87 0.90 0.90 0.97
0.41 0.66 0.80 0.91 0.84 0.75 0.80 0.77 0.70 0.84 1.18 1.19 1.37 1.37 1.15 1.08 1.01 1.04 1.15 1.24 1.20 1.12 1.04 1.04 1.13 1.24 1.33 1.35 1.37 1.34 1.31 1.35 1.46 1.54 1.43 1.31 1.19 1.10 1.06 0.96 0.88 0.84 0.87 0.95
0.33 0.40 0.39 0.37 0.35 0.44 0.66 0.75 0.74 0.74 0.80 1.06 1.08 1.00 0.96 0.94 0.94 0.88 0.89 0.88 0.79 0.73 0.74 0.78 0.83 0.85 0.83 0.82 0.90 0.96 1.05 1.19 1.36 1.51 1.51 1.39 1.22 1.09 1.03 0.98 0.90 0.88 0.88 0.90
0.27 0.30 0.27 0.28 0.24 0.33 0.49 0.58 0.59 0.57 0.58 0.66 0.75 0.76 0.66 0.62 0.65 0.65 0.67 0.63 0.58 0.52 0.49 0.47 0.49 0.49 0.48 0.46 0.47 0.50 0.61 0.79 1.04 1.32 1.33 1.17 1.02 0.87 0.80 0.83 0.86 0.87 0.85 0.89
0.23 0.29 0.36 0.41 0.32 0.33 0.56 0.56 0.50 0.50 0.43 0.45 0.51 0.52 0.47 0.51 0.58 0.59 0.64 0.65 0.50 0.40 0.38 0.36 0.34 0.34 0.34 0.34 0.34 0.38 0.47 0.61 0.79 0.92 0.93 0.85 0.78 0.76 0.82 0.85 0.81 0.82 0.85 0.86
0.22 0.30 0.40 0.43 0.45 0.68 0.86 0.72 0.59 0.54 0.36 0.31 0.32 0.35 0.39 0.50 0.53 0.53 0.50 0.50 0.48 0.37 0.29 0.27 0.27 0.27 0.32 0.33 0.37 0.42 0.49 0.56 0.60 0.63 0.66 0.64 0.63 0.66 0.74 0.78 0.77 0.84 0.89 0.85
0.24 0.37 0.49 0.52 0.61 0.76 0.78 0.66 0.66 0.65 0.51 0.30 0.29 0.30 0.28 0.28 0.29 0.30 0.30 0.28 0.27 0.24 0.20 0.19 0.19 0.20 0.22 0.23 0.24 0.27 0.30 0.32 0.34 0.35 0.36 0.40 0.44 0.47 0.50 0.52 0.61 0.74 0.82 0.86
0.24 0.34 0.52 0.57 0.67 0.79 0.61 0.38 0.40 0.56 0.70 0.28 0.22 0.23 0.20 0.18 0.24 0.24 0.23 0.24 0.21 0.18 0.19 0.19 0.16 0.17 0.20 0.20 0.21 0.20 0.21 0.22 0.23 0.24 0.26 0.29 0.33 0.35 0.37 0.43 0.48 0.56 0.59 0.67
0.28 0.36 0.44 0.52 0.71 0.88 0.62 0.40 0.36 0.65 0.69 0.25 0.17 0.17 0.17 0.18 0.17 0.17 0.19 0.21 0.19 0.17 0.18 0.19 0.19 0.18 0.19 0.22 0.23 0.23 0.23 0.24 0.27 0.29 0.31 0.32 0.32 0.33 0.37 0.42 0.46 0.50 0.54 0.63
0.32 0.44 0.49 0.63 0.95 1.09 0.79 0.56 0.55 0.49 0.26 0.17 0.13 0.13 0.15 0.16 0.15 0.15 0.17 0.18 0.17 0.16 0.16 0.17 0.18 0.21 0.22 0.22 0.22 0.23 0.23 0.26 0.29 0.31 0.33 0.35 0.35 0.37 0.39 0.44 0.50 0.53 0.57 0.60
0.29 0.35 0.43 0.59 0.84 0.81 0.67 0.54 0.42 0.34 0.23 0.14 0.12 0.13 0.17 0.18 0.18 0.20 0.20 0.18 0.17 0.17 0.15 0.15 0.16 0.17 0.18 0.20 0.20 0.20 0.24 0.27 0.29 0.32 0.33 0.36 0.37 0.37 0.37 0.43 0.50 0.54 0.56 0.59
0.27 0.24 0.30 0.35 0.41 0.39 0.36 0.33 0.25 0.22 0.19 0.15 0.15 0.18 0.21 0.23 0.22 0.20 0.20 0.20 0.18 0.18 0.16 0.15 0.16 0.18 0.19 0.21 0.21 0.24 0.25 0.25 0.26 0.32 0.36 0.37 0.37 0.38 0.39 0.43 0.48 0.52 0.56 0.59
0.27 0.28 0.29 0.31 0.28 0.25 0.23 0.23 0.21 0.17 0.14 0.13 0.16 0.19 0.22 0.23 0.23 0.20 0.20 0.22 0.20 0.18 0.18 0.20 0.21 0.20 0.22 0.23 0.25 0.29 0.31 0.29 0.27 0.30 0.33 0.33 0.36 0.40 0.42 0.43 0.46 0.48 0.53 0.63
0.18 0.24 0.31 0.32 0.24 0.24 0.25 0.21 0.17 0.16 0.13 0.12 0.13 0.15 0.17 0.19 0.22 0.21 0.19 0.20 0.23 0.23 0.23 0.24 0.24 0.24 0.25 0.25 0.28 0.30 0.34 0.37 0.36 0.35 0.33 0.32 0.35 0.38 0.41 0.42 0.43 0.47 0.49 0.59